Bastrop, LA

2:38 PM CDT on March 29, 2017 (GMT -0500)
Bastrop

Weather History for KBQP - October, 2013

Change the Weather History Date:

Tuesday, October 8, 2013

  Actual Average (KMLU) Record (KMLU)
Temperature  
Mean Temperature 65 °F -  
Max Temperature 78 °F 78 °F 94 °F (2010)
Min Temperature 52 °F 54 °F 37 °F (1952)
Growing Degree Days 15 (Base 50)    
Moisture  
Dew Point 51 °F    
Average Humidity 70    
Maximum Humidity 92    
Minimum Humidity 37    
Precipitation  
Precipitation 0.00 in - - ()
Sea Level Pressure  
Sea Level Pressure 30.09 in    
Wind  
Wind Speed 0 mph (North)    
Max Wind Speed 0 mph    
Max Gust Speed -    
Visibility 10 miles    
Events      
Averages and records for this station are not official NWS values.
T = Trace of Precipitation, MM = Missing Value Source: NWS Daily Summary

Daily Weather History Graph

Daily Weather History Graph

Search for Another Location

Airport or City:

Trip Planner

Search our weather history database for the weather conditions in past years. The results will help you decide how hot, cold, wet, or windy it might be!

Date:

Astronomy

Oct. 08, 2013 Rise Set
Actual Time 7:06 AM CDT 6:42 PM CDT
Civil Twilight 6:41 AM CDT 7:07 PM CDT
Nautical Twilight 6:13 AM CDT 7:35 PM CDT
Astronomical Twilight 5:44 AM CDT 8:04 PM CDT
Moon 10:49 AM CDT (10/8) 9:31 PM CDT (10/8)
Length of Visible Light 12h 25m
Length of Day
11h 36m
Waxing Crescent, 16% of the Moon is Illuminated
Oct 8
Waxing Crescent
Oct 11
First Quarter
Oct 18
Full
Oct 26
Last Quarter
Nov 3
New

Hourly Weather History & Observations

Time (CDT) Temp. Dew Point Humidity Pressure Visibility Wind Dir Wind Speed Gust Speed Precip Events Conditions
12:15 AM 55.8 °F 52.7 °F 89% 30.10 in 10.0 mi Calm Calm - N/A   Clear
12:35 AM 54.9 °F 52.2 °F 91% 30.10 in 10.0 mi Calm Calm - N/A   Clear
12:55 AM 55.4 °F 52.3 °F 89% 30.10 in 10.0 mi Calm Calm - N/A   Clear
1:15 AM 55.4 °F 52.3 °F 89% 30.10 in 10.0 mi Calm Calm - N/A   Clear
1:35 AM 55.4 °F 52.3 °F 89% 30.10 in 10.0 mi Calm Calm - N/A   Clear
1:55 AM 54.5 °F 52.0 °F 91% 30.10 in 10.0 mi Calm Calm - N/A   Clear
2:15 AM 53.6 °F 51.1 °F 91% 30.10 in 10.0 mi Calm Calm - N/A   Clear
2:35 AM 53.8 °F 51.6 °F 92% 30.10 in 10.0 mi Calm Calm - N/A   Clear
2:55 AM 53.6 °F 51.1 °F 91% 30.10 in 10.0 mi Calm Calm - N/A   Clear
3:15 AM 53.2 °F 50.9 °F 92% 30.10 in 10.0 mi Calm Calm - N/A   Clear
3:35 AM 53.4 °F 51.1 °F 92% 30.09 in 10.0 mi Calm Calm - N/A   Clear
3:55 AM 53.1 °F 50.2 °F 90% 30.09 in 10.0 mi Calm Calm - N/A   Clear
4:15 AM 52.9 °F 50.2 °F 91% 30.09 in 10.0 mi Calm Calm - N/A   Clear
4:35 AM 53.2 °F 49.8 °F 88% 30.09 in 10.0 mi Calm Calm - N/A   Clear
4:55 AM 52.2 °F 49.6 °F 91% 30.10 in 10.0 mi Calm Calm - N/A   Clear
5:15 AM 53.2 °F 50.4 °F 90% 30.10 in 10.0 mi Calm Calm - N/A   Clear
5:35 AM 52.9 °F 50.0 °F 90% 30.10 in 10.0 mi Calm Calm - N/A   Clear
5:55 AM 52.3 °F 49.5 °F 90% 30.10 in 10.0 mi Calm Calm - N/A   Clear
6:15 AM 52.7 °F 50.0 °F 91% 30.11 in 10.0 mi Calm Calm - N/A   Clear
6:35 AM 52.7 °F 49.8 °F 90% 30.11 in 10.0 mi Calm Calm - N/A   Clear
6:55 AM 52.2 °F 49.3 °F 90% 30.11 in 10.0 mi Calm Calm - N/A   Clear
7:15 AM 52.3 °F 49.5 °F 90% 30.11 in 10.0 mi Calm Calm - N/A   Clear
7:35 AM 52.3 °F 49.5 °F 90% 30.12 in 10.0 mi Calm Calm - N/A   Clear
7:55 AM 53.8 °F 50.9 °F 90% 30.12 in 10.0 mi Calm Calm - N/A   Clear
8:15 AM 55.8 °F 52.0 °F 87% 30.12 in 10.0 mi Calm Calm - N/A   Clear
8:35 AM 58.5 °F 52.9 °F 82% 30.13 in 10.0 mi Calm Calm - N/A   Clear
8:55 AM 60.6 °F 53.6 °F 78% 30.13 in 10.0 mi Calm Calm - N/A   Clear
9:15 AM 62.8 °F 53.2 °F 71% 30.13 in 10.0 mi Calm Calm - N/A   Clear
9:35 AM 64.0 °F 52.7 °F 67% 30.13 in 10.0 mi Calm Calm - N/A   Clear
9:55 AM 65.7 °F 52.9 °F 63% 30.13 in 10.0 mi Calm Calm - N/A   Clear
10:15 AM 67.1 °F 50.5 °F 55% 30.14 in 10.0 mi Calm Calm - N/A   Clear
10:35 AM 68.2 °F 49.8 °F 52% 30.14 in 10.0 mi Calm Calm - N/A   Clear
10:55 AM 68.7 °F 50.2 °F 52% 30.14 in 10.0 mi Calm Calm - N/A   Clear
11:15 AM 69.6 °F 49.3 °F 48% 30.13 in 10.0 mi Calm Calm - N/A   Clear
11:35 AM 71.4 °F 49.5 °F 46% 30.13 in 10.0 mi Calm Calm - N/A   Clear
11:55 AM 71.8 °F 49.8 °F 46% 30.12 in 10.0 mi Calm Calm - N/A   Clear
12:15 PM 72.7 °F 50.2 °F 45% 30.11 in 10.0 mi Calm Calm - N/A   Clear
12:35 PM 73.4 °F 49.6 °F 43% 30.11 in 10.0 mi Calm Calm - N/A   Clear
12:55 PM 74.1 °F 49.8 °F 42% 30.10 in 10.0 mi Calm Calm - N/A   Clear
1:15 PM 74.5 °F 50.0 °F 42% 30.09 in 10.0 mi Calm Calm - N/A   Clear
1:35 PM 76.1 °F 49.3 °F 39% 30.09 in 10.0 mi Calm Calm - N/A   Clear
1:55 PM 75.4 °F 49.3 °F 40% 30.07 in 10.0 mi Calm Calm - N/A   Clear
2:15 PM 76.8 °F 49.1 °F 38% 30.07 in 10.0 mi Calm Calm - N/A   Clear
2:35 PM 76.6 °F 49.3 °F 38% 30.06 in 10.0 mi Calm Calm - N/A   Clear
2:55 PM 77.4 °F 49.3 °F 37% 30.06 in 10.0 mi Calm Calm - N/A   Clear
3:15 PM 77.0 °F 48.9 °F 37% 30.05 in 10.0 mi Calm Calm - N/A   Clear
3:35 PM 77.5 °F 50.0 °F 38% 30.05 in 10.0 mi Calm Calm - N/A   Clear
3:55 PM 77.4 °F 49.6 °F 38% 30.05 in 10.0 mi Calm Calm - N/A   Clear
4:15 PM 78.1 °F 50.2 °F 38% 30.05 in 10.0 mi Calm Calm - N/A   Clear
4:35 PM 77.0 °F 48.9 °F 37% 30.04 in 10.0 mi Calm Calm - N/A   Clear
4:55 PM 77.2 °F 48.9 °F 37% 30.04 in 10.0 mi Calm Calm - N/A   Clear
5:15 PM 76.1 °F 49.8 °F 40% 30.04 in 10.0 mi Calm Calm - N/A   Clear
5:35 PM 75.4 °F 49.5 °F 40% 30.04 in 10.0 mi Calm Calm - N/A   Clear
5:55 PM 74.3 °F 50.9 °F 44% 30.04 in 10.0 mi Calm Calm - N/A   Clear
6:15 PM 72.7 °F 52.3 °F 49% 30.05 in 10.0 mi Calm Calm - N/A   Clear
6:35 PM 68.0 °F 55.4 °F 64% 30.05 in 10.0 mi Calm Calm - N/A   Clear
6:55 PM 64.8 °F 55.6 °F 72% 30.05 in 10.0 mi Calm Calm - N/A   Clear
7:15 PM 63.1 °F 55.4 °F 76% 30.05 in 10.0 mi Calm Calm - N/A   Clear
7:35 PM 61.7 °F 54.7 °F 78% 30.06 in 10.0 mi Calm Calm - N/A   Clear
7:55 PM 60.8 °F 54.7 °F 80% 30.06 in 10.0 mi Calm Calm - N/A   Clear
8:15 PM 60.8 °F 53.6 °F 77% 30.07 in 10.0 mi Calm Calm - N/A   Clear
8:35 PM 59.9 °F 53.8 °F 80% 30.07 in 10.0 mi Calm Calm - N/A   Clear
8:55 PM 59.2 °F 52.7 °F 79% 30.08 in 10.0 mi Calm Calm - N/A   Clear
9:15 PM 57.2 °F 52.9 °F 85% 30.08 in 10.0 mi Calm Calm - N/A   Clear
9:35 PM 57.2 °F 52.7 °F 85% 30.08 in 10.0 mi Calm Calm - N/A   Clear
9:55 PM 57.4 °F 52.2 °F 83% 30.08 in 10.0 mi Calm Calm - N/A   Clear
10:15 PM 57.2 °F 52.3 °F 84% 30.08 in 10.0 mi Calm Calm - N/A   Clear
10:35 PM 55.4 °F 51.3 °F 86% 30.08 in 10.0 mi Calm Calm - N/A   Clear
10:55 PM 55.9 °F 51.8 °F 86% 30.08 in 10.0 mi Calm Calm - N/A   Clear
11:15 PM 55.0 °F 51.3 °F 87% 30.08 in 10.0 mi Calm Calm - N/A   Clear
11:35 PM 55.0 °F 51.1 °F 86% 30.07 in 10.0 mi Calm Calm - N/A   Clear
11:55 PM 53.8 °F 50.9 °F 90% 30.07 in 10.0 mi Calm Calm - N/A   Clear